Gladstone Observation History
Time Wind Speed Temp Pressure Rel. Hum Rain
04/08:00am SE 12-18 kts n/a 1024.3 hPa n/a 0.0mm
04/07:30am SSE 8-14 kts n/a 1024.0 hPa n/a 0.0mm
04/07:00am SSE 9-15 kts n/a 1023.6 hPa n/a 0.0mm
04/06:30am SSE 9-15 kts n/a 1023.4 hPa n/a 0.0mm
04/06:00am S 9-12 kts n/a 1023.0 hPa n/a 0.0mm
04/05:30am S 9-13 kts n/a 1022.5 hPa n/a 0.0mm
04/05:00am S 10-13 kts n/a 1022.4 hPa n/a 0.0mm
04/04:30am S 9-13 kts n/a 1022.5 hPa n/a 0.0mm
04/04:00am SSW 9-12 kts n/a 1022.6 hPa n/a 0.0mm
04/03:30am S 8-11 kts n/a 1022.9 hPa n/a 0.0mm
04/03:00am S 8-10 kts n/a 1022.9 hPa n/a 0.0mm
04/02:30am SSE 5-7 kts n/a 1023.2 hPa n/a 0.0mm
04/02:00am SSE 4-5 kts n/a 1023.1 hPa n/a 0.0mm
04/01:30am SSE 5-6 kts n/a 1023.0 hPa n/a 0.0mm
04/01:00am SSE 5-7 kts n/a 1023.1 hPa n/a 0.0mm
04/12:30am SSE 8-11 kts n/a 1022.8 hPa n/a 0.0mm
04/12:00am S 9-13 kts n/a 1023.0 hPa n/a 0.0mm
Time Wind Speed Temp Pressure Rel. Hum Rain
03/11:30pm S 8-12 kts n/a 1023.0 hPa n/a 0.0mm
03/11:00pm S 9-17 kts n/a 1022.9 hPa n/a 0.0mm
03/10:30pm S 9-13 kts n/a 1023.0 hPa n/a 0.0mm
03/10:00pm S 6-7 kts n/a 1022.9 hPa n/a 0.0mm
03/09:30pm N 4-5 kts n/a 1022.9 hPa n/a 0.0mm
03/09:00pm CALM 0 kts n/a 1022.8 hPa n/a 0.0mm
03/08:30pm CALM 0 kts n/a 1022.4 hPa n/a 0.0mm
03/08:00pm N 4-5 kts n/a 1022.1 hPa n/a 0.0mm
03/07:30pm N 3-4 kts n/a 1022.0 hPa n/a 0.0mm
03/07:00pm N 3-4 kts n/a 1021.6 hPa n/a 0.0mm
03/06:30pm N 4-5 kts n/a 1021.2 hPa n/a 0.0mm
03/06:00pm N 4-6 kts n/a 1020.7 hPa n/a 0.0mm
03/05:30pm N 5-7 kts n/a 1020.5 hPa n/a 0.0mm
03/05:00pm N 5-9 kts n/a 1020.3 hPa n/a 0.0mm
03/04:30pm NE 5-7 kts n/a 1019.8 hPa n/a 0.0mm
03/04:00pm SSW 5-7 kts n/a 1019.5 hPa n/a 0.0mm
03/03:30pm SW 4-6 kts n/a 1019.5 hPa n/a 0.0mm
03/03:00pm SW 2-6 kts n/a 1019.4 hPa n/a 0.0mm
03/02:30pm S 3-7 kts n/a 1019.4 hPa n/a 0.0mm
03/02:00pm SW 4-9 kts n/a 1019.4 hPa n/a 0.0mm
03/01:30pm SSW 7-12 kts n/a 1019.7 hPa n/a 0.0mm
03/01:00pm SSW 7-11 kts n/a 1020.0 hPa n/a 0.0mm
03/12:30pm SSW 7-11 kts n/a 1020.5 hPa n/a 0.0mm
03/12:00pm SSW 9-13 kts n/a 1021.2 hPa n/a 0.0mm
03/11:30am S 8-14 kts n/a 1021.7 hPa n/a 0.0mm
03/11:00am SW 7-15 kts n/a 1022.2 hPa n/a 0.0mm
03/10:30am SSW 7-12 kts n/a 1022.7 hPa n/a 0.0mm
03/10:00am SSW 9-17 kts n/a 1022.8 hPa n/a 0.0mm
03/09:30am SSW 10-17 kts n/a 1023.0 hPa n/a 0.0mm
03/09:00am SSW 11-19 kts n/a 1023.1 hPa n/a 0.0mm
03/08:30am SSW 9-15 kts n/a 1023.0 hPa n/a 0.0mm
03/08:00am SW 8-14 kts n/a 1022.7 hPa n/a 0.0mm
03/07:30am SSW 9-15 kts n/a 1022.5 hPa n/a 0.0mm
03/07:00am SSW 8-15 kts n/a 1022.2 hPa n/a 0.0mm
03/06:30am SSW 7-11 kts n/a 1021.8 hPa n/a 0.0mm
03/06:00am SSW 7-12 kts n/a 1021.7 hPa n/a 0.0mm
03/05:30am SSW 9-14 kts n/a 1021.4 hPa n/a 0.0mm
03/05:00am SSW 7-11 kts n/a 1021.0 hPa n/a 0.0mm
03/04:30am SSW 7-14 kts n/a 1020.8 hPa n/a 0.0mm
03/04:00am SSW 8-14 kts n/a 1020.7 hPa n/a 0.0mm
03/03:30am SSW 9-15 kts n/a 1020.8 hPa n/a 0.0mm
03/03:00am SSW 9-13 kts n/a 1020.9 hPa n/a 0.0mm
03/02:30am SSW 7-11 kts n/a 1021.1 hPa n/a 0.0mm
03/02:00am SSW 6-9 kts n/a 1021.2 hPa n/a 0.0mm
03/01:30am SSW 6-9 kts n/a 1021.5 hPa n/a 0.0mm
03/01:00am SSW 7-10 kts n/a 1021.7 hPa n/a 0.0mm
03/12:30am SSW 6-11 kts n/a 1021.8 hPa n/a 0.0mm
03/12:00am SW 6-10 kts n/a 1021.8 hPa n/a 0.0mm
Time Wind Speed Temp Pressure Rel. Hum Rain
02/11:30pm SW 7-10 kts n/a 1022.2 hPa n/a 0.0mm
02/11:00pm SW 7-10 kts n/a 1022.3 hPa n/a 0.0mm
02/10:30pm SSW 7-12 kts n/a 1022.2 hPa n/a 0.0mm
02/10:00pm SSW 7-12 kts n/a 1022.2 hPa n/a 0.0mm
02/09:30pm SW 8-12 kts n/a 1022.1 hPa n/a 0.0mm
02/09:00pm SW 7-10 kts n/a 1022.0 hPa n/a 0.0mm
02/08:30pm SW 7-12 kts n/a 1021.6 hPa n/a 0.0mm
02/08:00pm SW 7-11 kts n/a 1021.3 hPa n/a 0.0mm
02/07:30pm SW 7-11 kts n/a 1020.9 hPa n/a 0.0mm
02/07:00pm SW 8-13 kts n/a 1020.5 hPa n/a 0.0mm
02/06:30pm SW 6-9 kts n/a 1020.0 hPa n/a 0.0mm
02/06:00pm WSW 5-9 kts n/a 1019.4 hPa n/a 0.0mm
02/05:30pm WSW 5-7 kts n/a 1019.0 hPa n/a 0.0mm
02/05:00pm SW 6-9 kts n/a 1018.7 hPa n/a 0.0mm
02/04:30pm SW 4-7 kts n/a 1018.2 hPa n/a 0.0mm
02/04:00pm WSW 4-8 kts n/a 1018.0 hPa n/a 0.0mm
02/03:30pm SW 5-9 kts n/a 1018.1 hPa n/a 0.0mm
02/03:00pm SW 5-9 kts n/a 1018.0 hPa n/a 0.0mm
02/02:30pm SW 7-12 kts n/a 1018.0 hPa n/a 0.0mm
02/02:00pm WSW 5-10 kts n/a 1018.1 hPa n/a 0.0mm
02/01:30pm WSW 7-13 kts n/a 1018.3 hPa n/a 0.0mm
02/01:00pm SW 5-11 kts n/a 1018.4 hPa n/a 0.0mm
02/12:30pm SW 5-10 kts n/a 1018.7 hPa n/a 0.0mm
02/12:00pm SW 4-9 kts n/a 1019.0 hPa n/a 0.0mm
02/11:30am SW 5-8 kts n/a 1019.4 hPa n/a 0.0mm
02/11:00am SSW 6-13 kts n/a 1019.6 hPa n/a 0.0mm
02/10:30am SW 6-12 kts n/a 1019.7 hPa n/a 0.0mm
02/10:00am SSW 7-10 kts n/a 1019.9 hPa n/a 0.0mm
02/09:30am SSW 6-10 kts n/a 1019.9 hPa n/a 0.0mm
02/09:00am SSW 7-11 kts n/a 1019.8 hPa n/a n/a
02/08:30am SSW 7-14 kts n/a 1019.7 hPa n/a n/a
02/08:00am SSW 7-13 kts n/a 1019.6 hPa n/a n/a
02/07:30am S 5-8 kts n/a 1019.3 hPa n/a n/a
02/07:00am SSW 6-10 kts n/a 1019.2 hPa n/a n/a
02/06:30am SSW 5-9 kts n/a 1019.0 hPa n/a n/a
02/06:00am SSW 6-11 kts n/a 1018.5 hPa n/a n/a
02/05:30am SW 6-10 kts n/a 1017.9 hPa n/a n/a
02/05:00am SW 6-8 kts n/a 1017.6 hPa n/a n/a
02/04:30am SW 7-14 kts n/a 1017.3 hPa n/a n/a
02/04:00am NW 4-5 kts n/a 1016.7 hPa n/a n/a
02/03:30am NW 3-4 kts n/a 1016.6 hPa n/a n/a
02/03:00am NW 3-5 kts n/a 1016.4 hPa n/a 0.0mm
02/02:30am NW 3-5 kts n/a 1016.5 hPa n/a n/a
02/02:00am NW 3-5 kts n/a 1016.8 hPa n/a n/a
02/01:30am NW 3-4 kts n/a 1016.8 hPa n/a n/a
02/01:00am NW 4-5 kts n/a 1016.9 hPa n/a n/a
02/12:30am NW 5-7 kts n/a 1017.1 hPa n/a n/a
02/12:00am NW 1-3 kts n/a 1017.1 hPa n/a n/a